Terminal Aerodrome Forecast
Issued by NWS San Angelo, TX

Home | Current Version | Previous Version | Text Only | Print | Product List | Glossary On
Versions: 1 2 3 4 5 6 7 8 9 10 11 12 13 14 15 16 17 18 19 20 21 22 23
000
FTUS44 KSJT 061100
TAFSJT
TAF
KSJT 061139Z 0612/0712 17012G20KT P6SM BKN025
     FM061600 18016G24KT P6SM SCT025 OVC050
     FM070400 14012KT P6SM BKN025=

USA.gov is the U.S. government's official web portal to all federal, state and local government web resources and services.